Flag for Brazil Weather past 2 weeks in Recife, Pernambuco, Brazil

Now
77 °F

Passing clouds.


Feels Like: 79 °F
Forecast: 75 / 82 °F
Wind: 12 mph from Southeast

Location: Recife Aeroporto

Current Time: Jul 29, 2015 at 9:16:41 PM

Latest Report: Jul 29, 2015 at 9:00 PM


Visibility: N/A

Pressure: 30.07 "Hg

Humidity: 79%

Dew point: 70 °F

Location of RecifeLocation

Historic Weather in Recife — Graph

°F

Recife temperature yesterday

Maximum temperature yesterday: 79 °F (at 7:00 AM)
Minimum temperature yesterday: 73 °F (at 12:00 AM)
Average temperature yesterday: 75 °F

Past Weeks' High & Low Weather Summary

 TemperatureHumidityPressure
High84 °F (Jul 15, 12:00 PM)100% (Jul 21, 3:00 AM)30.07 "Hg (Jul 21, 3:00 AM)
Low37 °F (Jul 26, 2:00 PM)25% (Jul 26, 4:00 PM)29.95 "Hg (Jul 16, 3:00 AM)
Average76 °F83%30.02 "Hg
* Reported Jul 14 8:00 PM — Jul 29 8:00 PM, Recife, Weather by CustomWeather, © 2015

Note: Actual official high and low records may vary slightly from our data, if they occured in-between our weather recording intervals... More about our weather records

Advertising

Recife weather history for previous 24 hours

 ConditionsComfort  
Time TempWeatherWind HumidityBarometerVisibility
8:00 PM
Wed, Jul 29
77 °FLight rain. Partly cloudy.13 mph79%30.04 "Hg4 mi
7:00 PM79 °FPassing clouds.14 mph74%30.04 "HgN/A
6:00 PM79 °FPartly cloudy.10 mph74%30.01 "HgN/A
5:00 PM79 °FScattered showers. Partly sunny.13 mph74%30.01 "HgN/A
4:00 PM81 °FScattered clouds.12 mph74%29.98 "HgN/A
3:00 PM81 °FScattered clouds.12 mph74%29.98 "HgN/A
2:00 PM81 °FBroken clouds.12 mph74%30.01 "HgN/A
1:00 PM77 °FLight rain. Broken clouds.8 mph89%30.01 "Hg2 mi
12:00 PM75 °FScattered showers. Broken clouds.12 mph94%30.04 "Hg5 mi
11:00 AM75 °FScattered showers. Partly sunny.9 mph94%30.07 "Hg5 mi
10:00 AM75 °FScattered showers. Partly sunny.7 mph89%30.07 "Hg5 mi
9:00 AM72 °FLight rain. Partly sunny.6 mph94%30.07 "Hg2 mi
8:00 AM72 °FLight rain. Partly sunny.9 mph94%30.07 "Hg2 mi
7:00 AM72 °FLight rain. Broken clouds.15 mph94%30.04 "Hg2 mi
6:00 AM72 °FLight rain. Partly sunny.17 mph94%30.01 "Hg3 mi
5:00 AM73 °FScattered showers. Partly cloudy.15 mph89%30.01 "HgN/A
4:00 AM72 °FPartly cloudy.6 mph94%29.98 "HgN/A
3:00 AM72 °FPartly cloudy.7 mph94%29.98 "HgN/A
2:00 AM75 °FPassing clouds.7 mph78%29.98 "HgN/A
1:00 AM73 °FLight rain. Partly cloudy.7 mph94%29.98 "HgN/A
12:00 AM75 °FPassing clouds.6 mph89%30.01 "HgN/A
11:00 PM
Tue, Jul 28
77 °FPassing clouds.10 mph83%30.01 "HgN/A
10:00 PM77 °FPartly cloudy.7 mph89%30.04 "HgN/A
9:00 PM79 °FPassing clouds.9 mph79%30.04 "HgN/A
Weather by CustomWeather, © 2015

See weather overviewHow to use our weather pages